Time,TemperatureF,DewpointF,PressureIn,WindDirection,WindDirectionDegrees,WindSpeedMPH,WindSpeedGustMPH,Humidity,HourlyPrecipIn,Conditions,Clouds,dailyrainin,SoftwareType,DateUTC
2014-09-16 00:00:00,75.4,74.5,30.12,East,93,0.0,0.0,97,0.00,,---,0.00,VWS V15.00,2014-09-16 04:00:00,
2014-09-16 00:15:00,75.3,74.1,30.11,East,93,0.0,0.0,96,0.00,,---,0.00,VWS V15.00,2014-09-16 04:15:00,
2014-09-16 00:30:00,75.1,74.2,30.11,East,93,0.0,0.0,97,0.00,,---,0.00,VWS V15.00,2014-09-16 04:30:00,
2014-09-16 00:45:00,75.0,74.1,30.11,East,93,0.0,0.0,97,0.00,,---,0.00,VWS V15.00,2014-09-16 04:45:00,
2014-09-16 01:00:00,74.9,74.0,30.10,East,93,0.0,0.0,97,0.00,,---,0.00,VWS V15.00,2014-09-16 05:00:00,
2014-09-16 01:15:00,74.8,73.9,30.10,East,93,0.0,0.0,97,0.00,,---,0.00,VWS V15.00,2014-09-16 05:15:00,
2014-09-16 01:30:00,74.7,73.8,30.10,East,93,0.0,0.0,97,0.00,,---,0.00,VWS V15.00,2014-09-16 05:30:00,
2014-09-16 01:45:00,74.6,73.7,30.10,East,93,0.0,0.0,97,0.00,,---,0.00,VWS V15.00,2014-09-16 05:45:00,
2014-09-16 02:00:00,74.6,73.7,30.10,East,93,0.0,0.0,97,0.00,,---,0.00,VWS V15.00,2014-09-16 06:00:00,
2014-09-16 02:15:00,74.5,73.9,30.09,East,93,0.0,0.0,98,0.00,,---,0.00,VWS V15.00,2014-09-16 06:15:00,
2014-09-16 02:30:00,74.5,73.9,30.08,East,93,0.0,0.0,98,0.00,,---,0.00,VWS V15.00,2014-09-16 06:30:00,
2014-09-16 02:45:00,74.5,73.9,30.08,East,93,0.0,0.0,98,0.00,,---,0.00,VWS V15.00,2014-09-16 06:45:00,
2014-09-16 03:00:00,74.4,73.8,30.08,East,93,0.0,0.0,98,0.00,,---,0.00,VWS V15.00,2014-09-16 07:00:00,
2014-09-16 03:15:00,74.4,73.8,30.07,East,93,0.0,0.0,98,0.00,,---,0.00,VWS V15.00,2014-09-16 07:15:00,
2014-09-16 03:30:00,74.4,73.8,30.06,East,93,0.0,0.0,98,0.00,,---,0.00,VWS V15.00,2014-09-16 07:30:00,
2014-09-16 03:45:00,74.2,73.6,30.06,East,93,0.0,0.0,98,0.00,,---,0.00,VWS V15.00,2014-09-16 07:45:00,
2014-09-16 04:00:00,74.2,73.6,30.06,East,93,0.0,0.0,98,0.00,,---,0.00,VWS V15.00,2014-09-16 08:00:00,
2014-09-16 04:15:00,74.2,73.6,30.06,East,93,0.0,0.0,98,0.00,,---,0.00,VWS V15.00,2014-09-16 08:15:00,
2014-09-16 04:30:00,74.0,73.4,30.06,East,93,0.0,0.0,98,0.00,,---,0.00,VWS V15.00,2014-09-16 08:30:00,
2014-09-16 04:45:00,73.9,73.3,30.06,East,93,0.0,0.0,98,0.00,,---,0.00,VWS V15.00,2014-09-16 08:45:00,
2014-09-16 05:00:00,74.4,73.8,30.06,East,93,0.0,0.0,98,0.00,,---,0.00,VWS V15.00,2014-09-16 09:00:00,
2014-09-16 05:15:00,75.2,74.9,30.06,East,93,0.0,0.0,99,0.00,,---,0.00,VWS V15.00,2014-09-16 09:15:00,
2014-09-16 05:30:00,75.3,75.0,30.07,East,93,0.0,0.0,99,0.00,,---,0.00,VWS V15.00,2014-09-16 09:30:00,
2014-09-16 05:45:00,75.3,74.7,30.07,East,93,0.0,0.0,98,0.00,,---,0.00,VWS V15.00,2014-09-16 09:45:00,
2014-09-16 06:00:00,75.2,74.6,30.07,East,93,0.0,0.0,98,0.00,,---,0.00,VWS V15.00,2014-09-16 10:00:00,
2014-09-16 06:15:00,75.0,74.4,30.07,East,93,0.0,0.0,98,0.00,,---,0.00,VWS V15.00,2014-09-16 10:15:00,
2014-09-16 06:30:00,74.7,74.1,30.07,East,93,0.0,0.0,98,0.00,,---,0.00,VWS V15.00,2014-09-16 10:30:00,
2014-09-16 06:45:00,74.5,73.9,30.07,East,93,0.0,0.0,98,0.00,,---,0.00,VWS V15.00,2014-09-16 10:45:00,
2014-09-16 07:00:00,74.3,73.7,30.08,East,93,0.0,0.0,98,0.00,,---,0.00,VWS V15.00,2014-09-16 11:00:00,
2014-09-16 07:15:00,74.1,73.5,30.08,East,93,0.0,0.0,98,0.00,,---,0.00,VWS V15.00,2014-09-16 11:15:00,
2014-09-16 07:30:00,74.1,73.5,30.08,East,93,0.0,0.0,98,0.00,,---,0.00,VWS V15.00,2014-09-16 11:30:00,
2014-09-16 07:45:00,74.4,74.1,30.08,East,93,0.0,0.0,99,0.00,,---,0.00,VWS V15.00,2014-09-16 11:45:00,
2014-09-16 08:00:00,75.0,74.7,30.08,East,93,0.0,0.0,99,0.00,,---,0.00,VWS V15.00,2014-09-16 12:00:00,
2014-09-16 08:15:00,76.1,75.8,30.08,East,93,0.0,0.0,99,0.00,,---,0.00,VWS V15.00,2014-09-16 12:15:00,
2014-09-16 08:30:00,77.7,77.4,30.08,East,93,0.0,0.0,99,0.00,,---,0.00,VWS V15.00,2014-09-16 12:30:00,
2014-09-16 08:45:00,79.6,77.7,30.08,East,93,0.0,0.0,94,0.00,,---,0.00,VWS V15.00,2014-09-16 12:45:00,
2014-09-16 09:00:00,81.7,78.8,30.07,East,93,0.0,0.0,91,0.00,,---,0.00,VWS V15.00,2014-09-16 13:00:00,
2014-09-16 09:15:00,83.8,78.8,30.07,East,93,0.0,0.0,85,0.00,,---,0.00,VWS V15.00,2014-09-16 13:15:00,
2014-09-16 09:30:00,85.7,79.6,30.07,East,93,0.0,0.0,82,0.00,,---,0.00,VWS V15.00,2014-09-16 13:30:00,
2014-09-16 09:45:00,86.3,78.6,30.07,East,96,0.0,0.0,78,0.00,,---,0.00,VWS V15.00,2014-09-16 13:45:00,
2014-09-16 10:00:00,87.6,78.3,30.07,NE,55,0.0,0.0,74,0.00,,---,0.00,VWS V15.00,2014-09-16 14:00:00,
2014-09-16 10:15:00,88.0,78.3,30.07,NE,56,0.0,0.0,73,0.00,,---,0.00,VWS V15.00,2014-09-16 14:15:00,
2014-09-16 10:30:00,88.3,76.8,30.07,NE,56,0.0,0.0,69,0.00,,---,0.00,VWS V15.00,2014-09-16 14:30:00,
2014-09-16 10:45:00,88.4,77.4,30.07,NNW,327,0.0,0.0,70,0.00,,---,0.00,VWS V15.00,2014-09-16 14:45:00,
2014-09-16 11:00:00,89.1,75.8,30.06,NNW,327,0.0,0.0,65,0.00,,---,0.00,VWS V15.00,2014-09-16 15:00:00,
2014-09-16 11:15:00,89.4,77.4,30.06,NW,317,0.0,0.0,68,0.00,,---,0.00,VWS V15.00,2014-09-16 15:15:00,
2014-09-16 11:30:00,89.6,76.7,30.06,NW,320,0.0,0.0,66,0.00,,---,0.00,VWS V15.00,2014-09-16 15:30:00,
2014-09-16 11:45:00,90.8,77.4,30.06,WNW,290,0.0,0.0,65,0.00,,---,0.00,VWS V15.00,2014-09-16 15:45:00,
2014-09-16 12:00:00,90.7,76.8,30.06,NW,306,0.0,0.0,64,0.00,,---,0.00,VWS V15.00,2014-09-16 16:00:00,
2014-09-16 12:15:00,89.9,76.6,30.06,NW,309,0.0,0.0,65,0.00,,---,0.00,VWS V15.00,2014-09-16 16:15:00,
2014-09-16 12:30:00,87.9,76.5,30.05,East,80,0.0,0.0,69,0.00,,---,0.00,VWS V15.00,2014-09-16 16:30:00,
2014-09-16 12:45:00,86.3,77.4,30.04,East,80,0.0,0.0,75,0.00,,---,0.00,VWS V15.00,2014-09-16 16:45:00,
2014-09-16 13:00:00,86.5,77.2,30.04,East,88,0.0,0.0,74,0.00,,---,0.00,VWS V15.00,2014-09-16 17:00:00,
2014-09-16 13:15:00,85.9,75.4,30.04,East,88,0.0,0.0,71,0.00,,---,0.00,VWS V15.00,2014-09-16 17:15:00,
2014-09-16 13:30:00,84.8,73.9,30.04,NNW,342,0.0,0.0,70,0.00,,---,0.00,VWS V15.00,2014-09-16 17:30:00,
2014-09-16 13:45:00,82.7,70.6,30.03,NNE,13,0.0,0.0,67,0.00,,---,0.00,VWS V15.00,2014-09-16 17:45:00,
2014-09-16 14:00:00,81.9,72.4,30.03,North,10,0.0,0.0,73,0.00,,---,0.00,VWS V15.00,2014-09-16 18:00:00,
2014-09-16 14:15:00,81.1,72.4,30.03,WNW,285,0.0,0.0,75,0.00,,---,0.00,VWS V15.00,2014-09-16 18:15:00,
2014-09-16 14:30:00,79.5,72.8,30.03,WNW,292,0.0,0.0,80,0.00,,---,0.00,VWS V15.00,2014-09-16 18:30:00,
2014-09-16 14:45:00,79.3,73.0,30.01,WNW,292,0.0,0.0,81,0.00,,---,0.00,VWS V15.00,2014-09-16 18:45:00,
2014-09-16 15:00:00,79.3,73.7,30.02,WNW,292,0.0,0.0,83,0.00,,---,0.00,VWS V15.00,2014-09-16 19:00:00,
2014-09-16 15:15:00,79.4,73.8,30.02,WNW,292,0.0,0.0,83,0.00,,---,0.00,VWS V15.00,2014-09-16 19:15:00,
2014-09-16 15:30:00,79.6,74.3,30.00,WNW,292,0.0,0.0,84,0.00,,---,0.00,VWS V15.00,2014-09-16 19:30:00,
2014-09-16 15:45:00,79.7,75.2,30.00,WNW,292,0.0,0.0,86,0.00,,---,0.00,VWS V15.00,2014-09-16 19:45:00,
2014-09-16 16:00:00,79.9,75.0,30.00,WNW,292,0.0,0.0,85,0.00,,---,0.00,VWS V15.00,2014-09-16 20:00:00,
2014-09-16 16:15:00,80.2,76.0,29.99,WSW,246,0.0,0.0,87,0.00,,---,0.00,VWS V15.00,2014-09-16 20:15:00,
2014-09-16 16:30:00,80.1,75.9,29.99,WSW,257,0.0,0.0,87,0.00,,---,0.00,VWS V15.00,2014-09-16 20:30:00,
2014-09-16 16:45:00,79.8,75.6,29.98,WSW,257,0.0,0.0,87,0.00,,---,0.00,VWS V15.00,2014-09-16 20:45:00,
2014-09-16 17:00:00,79.7,75.2,29.98,WSW,257,0.0,0.0,86,0.00,,---,0.00,VWS V15.00,2014-09-16 21:00:00,
2014-09-16 17:15:00,79.8,74.9,29.98,WSW,257,0.0,0.0,85,0.00,,---,0.00,VWS V15.00,2014-09-16 21:15:00,
2014-09-16 17:30:00,79.8,75.2,29.97,WSW,257,0.0,0.0,86,0.00,,---,0.00,VWS V15.00,2014-09-16 21:30:00,
2014-09-16 17:45:00,80.0,75.1,29.97,WSW,257,0.0,0.0,85,0.00,,---,0.00,VWS V15.00,2014-09-16 21:45:00,
2014-09-16 18:00:00,80.7,75.1,29.98,WSW,257,0.0,0.0,83,0.00,,---,0.00,VWS V15.00,2014-09-16 22:00:00,
2014-09-16 18:15:00,81.4,75.7,29.97,WSW,251,0.0,0.0,83,0.00,,---,0.00,VWS V15.00,2014-09-16 22:15:00,